Weather History for KMMT - February, 2013

Change the Weather History Date:

Monday, February 25, 2013

  Actual Average Record
Temperature  
Mean Temperature 44 °F -  
Max Temperature 49 °F 59 °F 74 °F (2011)
Min Temperature 38 °F 40 °F 30 °F (2002)
Degree Days  
Heating Degree Days 22    
Moisture  
Dew Point 31 °F    
Average Humidity 62    
Maximum Humidity 97    
Minimum Humidity 49    
Precipitation  
Precipitation 0.00 in - - ()
Sea Level Pressure  
Sea Level Pressure 30.06 in    
Wind  
Wind Speed 8 mph (ENE)    
Max Wind Speed 13 mph    
Max Gust Speed 20 mph    
Visibility 9 miles    
Events Rain    
Averages and records for this station are not official NWS values.
T = Trace of Precipitation, MM = Missing Value Source: NWS Daily Summary

Daily Weather History Graph

Daily Weather History Graph

Search for Another Location

Airport or City:

Trip Planner

Search our weather history database for the weather conditions in past years. The results will help you decide how hot, cold, wet, or windy it might be!

Date:

Astronomy

Feb. 25, 2013 Rise Set
Actual Time 6:56 AM EST 6:16 PM EST
Civil Twilight 6:31 AM EST 6:41 PM EST
Nautical Twilight 6:02 AM EST 7:10 PM EST
Astronomical Twilight 5:33 AM EST 7:39 PM EST
Moon 6:25 PM EST (2/25) 6:27 AM EST (2/25)
Length of Visible Light 12h 10m
Length of Day
11h 20m
Full, 100% of the Moon is Illuminated
Feb 25
Full
Feb 25
Full
Mar 4
Last Quarter
Mar 11
New
Mar 19
First Quarter

Hourly Weather History & Observations

Time (EST) Temp. Windchill Dew Point Humidity Pressure Visibility Wind Dir Wind Speed Gust Speed Precip Events Conditions
12:58 AM 38.7 °F - 37.8 °F 97% 30.00 in 10.0 mi Calm Calm - N/A   Clear
1:58 AM 43.9 °F 39.3 °F 38.7 °F 82% 30.00 in 10.0 mi NNE 8.1 mph - N/A   Clear
2:58 AM 49.5 °F - 32.9 °F 53% 29.99 in 10.0 mi NE 12.7 mph 19.6 mph N/A   Clear
3:58 AM 47.7 °F - 31.5 °F 53% 30.03 in 10.0 mi ENE 6.9 mph - N/A   Clear
4:58 AM 47.3 °F - 28.8 °F 49% 30.03 in 10.0 mi NE 9.2 mph - N/A   Clear
5:58 AM 46.0 °F 41.0 °F 28.4 °F 50% 30.02 in 10.0 mi NE 10.4 mph - N/A   Clear
6:58 AM 44.8 °F 41.6 °F 28.4 °F 53% 30.08 in 7.0 mi East 5.8 mph - N/A   Overcast
7:58 AM 44.4 °F 40.5 °F 28.4 °F 53% 30.09 in 7.0 mi ENE 6.9 mph - N/A   Overcast
8:58 AM 44.6 °F 40.2 °F 29.7 °F 56% 30.13 in 7.0 mi NE 8.1 mph - N/A   Overcast
9:58 AM 44.6 °F 40.2 °F 32.0 °F 61% 30.12 in 7.0 mi NE 8.1 mph - N/A   Overcast
10:58 AM 44.8 °F 39.9 °F 34.2 °F 66% 30.14 in 7.0 mi NE 9.2 mph - 0.00 in   Overcast
11:58 AM 44.1 °F 38.6 °F 31.8 °F 62% 30.13 in 7.0 mi NE 10.4 mph - N/A   Overcast
12:58 PM 43.7 °F 39.1 °F 30.6 °F 60% 30.10 in 7.0 mi ENE 8.1 mph 18.4 mph N/A   Overcast
1:58 PM 42.8 °F 38.0 °F 30.2 °F 61% 30.12 in 10.0 mi NE 8.1 mph - 0.00 in   Clear
2:46 PM 42.8 °F 39.3 °F 30.2 °F 61% 30.06 in 7.0 mi ENE 5.8 mph - N/A   Light Drizzle
2:58 PM 43.5 °F 37.9 °F 30.4 °F 60% 30.07 in 7.0 mi ENE 10.4 mph - 0.00 in   Light Drizzle
3:28 PM 42.8 °F 37.5 °F 30.2 °F 61% 30.06 in 10.0 mi ENE 9.2 mph - N/A   Overcast
3:58 PM 43.3 °F 38.1 °F 29.3 °F 58% 30.06 in 10.0 mi NE 9.2 mph - 0.00 in   Overcast
4:58 PM 43.3 °F 38.6 °F 28.2 °F 55% 30.08 in 10.0 mi NNE 8.1 mph - N/A   Overcast
5:58 PM 43.2 °F 37.4 °F 28.2 °F 56% 30.08 in 10.0 mi East 10.4 mph - N/A   Overcast
6:23 PM 42.8 °F 39.3 °F 28.4 °F 57% 30.08 in 10.0 mi ENE 5.8 mph - N/A   Overcast
6:58 PM 42.8 °F 38.6 °F 28.4 °F 57% 30.09 in 10.0 mi NE 6.9 mph - N/A   Overcast
7:08 PM 42.8 °F 37.0 °F 28.4 °F 57% 30.07 in 10.0 mi ENE 10.4 mph - N/A   Overcast
7:58 PM 42.6 °F 36.8 °F 28.9 °F 58% 30.08 in 10.0 mi ENE 10.4 mph 17.3 mph N/A   Overcast
8:08 PM 42.8 °F 37.0 °F 28.4 °F 57% 30.06 in 7.0 mi ENE 10.4 mph - N/A Rain Light Rain
8:15 PM 41.0 °F 34.3 °F 32.0 °F 70% 30.06 in 7.0 mi ENE 11.5 mph 18.4 mph N/A Rain Light Rain
8:35 PM 41.0 °F 35.2 °F 32.0 °F 70% 30.06 in 7.0 mi ENE 9.2 mph 18.4 mph N/A   Light Drizzle
8:44 PM 41.0 °F 35.8 °F 32.0 °F 70% 30.06 in 10.0 mi ENE 8.1 mph 17.3 mph N/A   Overcast
8:48 PM 41.0 °F 35.2 °F 32.0 °F 70% 30.06 in 7.0 mi ENE 9.2 mph 17.3 mph N/A   Light Drizzle
8:58 PM 40.1 °F 33.2 °F 32.2 °F 73% 30.06 in 7.0 mi ENE 11.5 mph 17.3 mph 0.00 in Rain Light Rain
9:13 PM 39.2 °F 33.0 °F 32.0 °F 75% 30.06 in 10.0 mi ENE 9.2 mph - N/A   Overcast
9:21 PM 41.0 °F 34.7 °F 32.0 °F 70% 30.04 in 10.0 mi East 10.4 mph - N/A   Overcast
9:58 PM 41.7 °F 35.6 °F 30.0 °F 63% 30.05 in 10.0 mi ENE 10.4 mph - N/A   Overcast
10:58 PM 42.6 °F 37.8 °F 28.9 °F 58% 30.03 in 10.0 mi NE 8.1 mph - N/A   Overcast
11:58 PM 42.4 °F 37.5 °F 28.8 °F 58% 30.02 in 10.0 mi NE 8.1 mph - N/A   Overcast